Location: Staunton
(38.1490°N, 79.0720°W)
Time: 19:42:50
(UTC-04:00)

ISS - Pass Details

Date: 04 August 2020
Orbit: 418 x 420 km, 51.6° (Epoch: 15 August)

Event Time Altitude Azimuth Distance (km) Brightness Sun altitude
Rises 21:25:03 0° 302° (WNW) 2,367 2.3 -11.8°
Reaches altitude 10° 21:27:14 10° 293° (WNW) 1,500 0.5 -12.2°
Maximum altitude 21:30:21 35° 226° (SW) 688 -2.6 -12.7°
Enters shadow 21:32:34 16° 165° (SSE) 1,170 -1.9 -13.0°
